User: anonymous   Login
Location: Fort Frances
(48.6170°N, 93.4170°W)
Time: 12:16:46
(UTC-06:00)
Language:

CZ-2C R/B - Orbit

View from above orbital plane
View from above orbital plane
View from above satellite
View from above satellite

Ground track
Ground track

The orbit data is extracted from the following two-line orbital elements,

1 36089U 09061B   16339.10177242  .00000097  00000-0  35722-4 0  9997
2 36089  98.0500 343.6089 0080871 286.8377 114.5076 14.49622782373448
Epoch (UTC): 04 December 2016 02:26:33
Eccentricity: 0.0080871
inclination: 98.0500°
perigee height: 669 km
apogee height: 784 km
right ascension of ascending node: 343.6089°
argument of perigee: 286.8377°
revolutions per day: 14.49622782
mean anomaly at epoch: 114.5076°
orbit number at epoch: 37344

The dashed part of the orbit path shows where the satellite is in the earth's shadow,  

DLR